THOR AGENA B R/B, 741

Orbit data source: Space-Track

THOR AGENA B R/B, 741 is space debris in LEO originally from a launch on Sat, 25 Jan 1964 UTC launched from the Air Force Western Test Range (AFWTR). Debris objects in space refer to the collection of defunct objects orbiting the Earth. Examples of debris include non-operational satellites, rocket bodies, and fragments generated from explosions, collisions, or faulty payload assembly.

Loading next visibility...
Identifier
741, 1964-004B
Orbit
LEO
Country
Flag of USUS
Related business
Manufacturer
LMSC
Mission
Spacecraft
Bus & Motor
AGENA B, Unknown motor
Mass
~705 kg wet, 705 kg dry
Launch date (UTC)
1964-01-25 (62 years ago)
Launch vehicle
Unknown
Launch site
Air Force Western Test Range (AFWTR)
Object type
Payload
Rocket body
Debris
Shape & HBR
Unknown
Radar Cross Section
Large (>1 m²)

Expand to show TLE details & history
Last TLE update: 7 hours ago

TLE from 7 hours ago
0 THOR AGENA B R/B
1 00741U 64004B   26037.64427743 -.00000026  00000-0 -78519-4 0  9995
2 00741  81.4881 269.4288 0171310 210.8977 204.0969 13.23826954995792
Epoch: 2026-02-06T15:27Z
TLE epoch observation values (Epoch: 2026-02-06T15:27:45.569Z)
Latitude
53.436°
Longitude
-87.70768°
Altitude
1,297.24 km
Speed
7.156 km/s
True Right ascension
18h 44m 02s
True Declination
53° 16' 58"
Sunlit
Object was in daylight at epoch
Visualization orbit readout
Latitude
Unknown
Longitude
Unknown
Altitude
Unknown
Speed
Unknown
Apparent Right ascension
Unknown
Apparent Declination
Unknown
Sunlit
N/A
Visualization observer readout
Local Sidereal Time
00:28:07
Azimuth
Unknown
Elevation
Unknown
Doppler factor
Unknown
Orbital elements
Apogee altitude
1,296.679 km
Perigee altitude
1,038.153 km
Semi-major axis
7,545.553 km
Eccentricity
0.01713
Inclination
81.4881°
RAAN
269.4288°
Arg. of periapsis
210.8977°
True anomaly
203.31082°
Mean anomaly
204.0969°
Eccentric anomaly
203.70234°
Mean motion
3.31136 °/min
Orbital period
108.72 mins
BSTAR
-0.000078519
Loading maneuver chart data...
Computing Atmospheric mass density...
Loading historical data...
Loading historical data...
Loading historical data...
Loading historical data...
Loading historical data...
Loading historical data...
Loading historical data...

Documentation

Showing up to 5 results
|